Location: Newark
(50.0306°N, 2.3272°E)
Time: 06:30:47
(UTC+00:00)

Transit 2A Rocket - Pass Details

Date: 06 December 2019
Orbit: 593 x 910 km, 66.7° (Epoch: 19 January)

Event Time Altitude Azimuth Distance (km) Brightness Sun altitude
Rises 17:21:17 0° 207° (SSW) 2,973 8.8 -13.9°
Reaches altitude 10° 17:23:38 10° 205° (SSW) 2,025 7.8 -14.3°
Maximum altitude 17:28:07 67° 123° (ESE) 669 4.5 -15.0°
Enters shadow 17:30:41 24° 46° (NE) 1,276 5.7 -15.4°
Drops below altitude 10° 17:32:25 10° 41° (NE) 1,944 - -15.6°
Sets 17:34:39 0° 39° (NE) 2,843 - -16.0°
